Location: *
(32.3300°N, 34.8500°E)
Time: 07:00:16
(UTC+00:00)

Cosmos 1437 Rocket - Pass Details

Date: 22 October 2019
Orbit: 507 x 563 km, 81.2° (Epoch: 14 November)

Event Time Altitude Azimuth Distance (km) Brightness Sun altitude
Rises 02:33:47 0° 197° (SSW) 2,607 6.1 -16.6°
Reaches altitude 10° 02:35:56 10° 202° (SSW) 1,720 5.1 -16.1°
Maximum altitude 02:39:37 51° 279° (W) 642 2.7 -15.4°
Drops below altitude 10° 02:43:18 10° 357° (N) 1,724 5.3 -14.6°
Sets 02:45:29 0° 2° (N) 2,614 6.3 -14.1°
